[[{"header":{"parameterUnit":"m.s-1","parameterCategory":1,"la1":30.2991,"la2":30.254,"lo1":-89.0895,"lo2":-89.0444,"dy":0.0017,"dx":0.0017,"nx":28,"ny":28,"refTime":"2025-06-03T03:00:00:Z","depth":0,"parameterNumber":2,"parameterNumberName":"U-component_of_WINDS"},"data":[0,0,0,0,0,0,0,0,0,0,0,0,0,0,0,0,0,0,0,0,0,0,0,0,0,0,0,0,0,0,0,0,0,0,0,0,0,0,0,0,0,0,0,0,0,0,0,0,0,0,0,0,0,0,0,0,0,0,-1.0633,-1.0632,0,-1.0563,-1.0563,-1.0562,-1.0485,-1.0484,-1.0483,-1.0482,-1.0412,-1.0411,-1.041,0,0,0,0,0,0,0,0,0,0,0,0,0,-1.0702,-1.0701,-1.0633,-1.0632,-1.0631,-1.0564,-1.0563,-1.0562,-1.0485,-1.0484,-1.0483,-1.0482,-1.0412,-1.0411,-1.041,0,0,0,0,0,0,0,0,0,0,0,0,0,-1.0656,-1.0701,-1.0633,-1.0585,-1.058,-1.0564,-1.0563,-1.0561,-1.0486,-1.0484,-1.0482,-1.0481,-1.0412,-1.0411,-1.041,-1.0435,0,0,-1.0406,-1.0405,0,0,0,0,0,0,0,0,-1.0659,-1.0654,-1.0593,-1.0588,-1.0583,-1.0531,-1.0561,-1.0519,-1.0486,-1.0522,-1.0482,-1.048,-1.0453,-1.0448,-1.0439,-1.0432,-1.0429,-1.0406,-1.0405,-1.0404,-1.0404,0,0,0,0,0,0,0,-1.0662,-1.0656,-1.0605,-1.0592,-1.0586,-1.0568,-1.0559,-1.0553,-1.0497,-1.0518,-1.0513,-1.0505,-1.045,-1.044,-1.0437,-1.0428,-1.0406,-1.0405,-1.0404,-1.0403,-1.044,-1.0442,0,0,0,0,0,0,-1.0673,-1.066,-1.0608,-1.0603,-1.0618,-1.0568,-1.0558,-1.055,-1.0497,-1.0488,-1.0507,-1.0502,-1.0443,-1.0438,-1.0434,-1.0461,-1.0404,-1.0403,-1.0403,-1.0438,-1.0441,-1.0442,0,0,0,0,0,0,-1.0674,-1.0669,-1.0611,-1.063,-1.0621,-1.0568,-1.0559,-1.0549,-1.0539,-1.0489,-1.0479,-1.0507,-1.0442,-1.0436,-1.0436,-1.0457,-1.0403,-1.0402,-1.0436,-1.0439,-1.0441,-1.0515,0,0,0,0,0,0,-1.0677,-1.067,-1.0678,-1.0631,-1.062,-1.0613,-1.056,-1.0549,-1.0537,-1.053,-1.0486,-1.0477,-1.044,-1.0438,-1.0435,-1.0455,-1.0401,-1.0434,-1.0438,-1.0441,-1.0511,-1.052,-1.0528,0,0,0,0,0,-1.0679,-1.0702,-1.0679,-1.0673,-1.063,-1.0615,-1.0609,-1.0565,-1.0539,-1.0548,-1.0516,-1.0479,-1.0456,-1.0439,-1.0434,-1.0454,-1.0433,-1.0437,-1.044,-1.0507,-1.0518,-1.0528,0,0,0,0,0,0,-1.0753,-1.0695,-1.0669,-1.0676,-1.0651,-1.0602,-1.0611,-1.0578,-1.056,-1.0554,-1.0501,-1.0492,-1.0499,-1.0476,-1.0458,-1.0477,-1.0439,-1.0442,-1.0491,-1.0501,-1.051,-1.0515,-1.04,0,0,0,0,0,-1.0771,-1.0763,-1.0712,-1.0724,-1.0712,-1.0664,-1.0656,-1.0624,-1.0596,-1.0585,-1.0553,-1.0527,-1.0514,-1.0506,-1.0492,-1.0507,-1.0497,-1.0519,-1.0528,-1.0535,-1.0538,-1.0546,-1.0555,-1.0455,-1.0455,-1.0455,0,0,-1.0806,-1.0773,-1.0771,-1.0738,-1.0714,-1.0708,-1.0656,-1.0651,-1.0646,-1.0584,-1.0582,-1.0558,-1.0526,-1.0535,-1.0537,-1.0516,-1.0564,-1.054,-1.0546,-1.0545,-1.0551,-1.056,-1.0569,-1.0458,-1.0457,-1.0457,0,0,-1.0867,-1.0841,-1.0848,-1.0826,-1.0792,-1.076,-1.0762,-1.0718,-1.0699,-1.0697,-1.0651,-1.0645,-1.0623,-1.0602,-1.0589,-1.0645,-1.061,-1.0641,-1.0687,-1.0695,-1.0703,-1.0709,-1.073,-1.0738,-1.0645,-1.0645,-1.0645,0,-1.0916,-1.0903,-1.0856,-1.0855,-1.0842,-1.0786,-1.0794,-1.0775,-1.0738,-1.073,-1.0708,-1.0681,-1.0655,-1.0658,-1.0672,-1.0663,-1.0664,-1.0646,-1.0705,-1.0712,-1.0717,-1.0736,-1.0744,-1.0649,-1.0649,-1.0648,-1.0648,0,-1.0965,-1.0958,-1.0968,-1.0933,-1.0921,-1.0924,-1.0879,-1.0873,-1.0843,-1.0814,-1.0813,-1.078,-1.0758,-1.0757,-1.0728,-1.0756,-1.0745,-1.0715,-1.0676,-1.0732,-1.0748,-1.0755,-1.0655,-1.0653,-1.0652,-1.0651,0,0,-1.107,-1.101,-1.1015,-1.0999,-1.0957,-1.0951,-1.0952,-1.093,-1.0927,-1.0903,-1.0903,-1.0887,-1.086,-1.0845,-1.0813,-1.082,-1.0867,-1.0789,-1.0787,-1.0805,-1.0898,-1.092,-1.0929,-1.0844,-1.0845,-1.0846,-1.09,0,-1.1124,-1.1122,-1.108,-1.109,-1.1083,-1.1031,-1.1032,-1.1007,-1.0981,-1.0971,-1.0942,-1.0932,-1.0895,-1.0886,-1.0891,-1.086,-1.0885,-1.0856,-1.0844,-1.0844,-1.0854,-1.0938,-1.0962,-1.1014,-1.0907,-1.0908,-1.0908,0,-1.1186,-1.1167,-1.1176,-1.1135,-1.1131,-1.1132,-1.111,-1.1102,-1.1073,-1.1053,-1.1038,-1.1002,-1.1001,-1.0964,-1.0963,-1.0944,-1.0937,-1.0921,-1.0922,-1.0919,-1.088,-1.0938,-1.103,-1.1038,-1.0918,-1.0917,-1.0917,0,-1.1263,-1.1239,-1.1241,-1.1229,-1.1181,-1.1184,-1.1164,-1.1134,-1.1124,-1.1105,-1.1098,-1.108,-1.1069,-1.1056,-1.1017,-1.0994,-1.102,-1.098,-1.1004,-1.1005,-1.1011,-1.1012,-1.1104,-1.1007,-1.1007,-1.1007,-1.1007,0,-1.1327,-1.1335,-1.1275,-1.1276,-1.1284,-1.1237,-1.1246,-1.1221,-1.1195,-1.1192,-1.1146,-1.1144,-1.1092,-1.1084,-1.1053,-1.1057,-1.1053,-1.1037,-1.1029,-1.1041,-1.1043,-1.1036,-1.1031,-1.1009,-1.1009,-1.1008,-1.1008,0,-1.1413,-1.1373,-1.1373,-1.1328,-1.1317,-1.1325,-1.1287,-1.1287,-1.1258,-1.1254,-1.1251,-1.1205,-1.1194,-1.1153,-1.1132,-1.1111,-1.1125,-1.1109,-1.1135,-1.113,-1.1156,-1.1154,-1.1247,-1.1257,-1.1154,-1.1155,-1.1156,0,-1.1457,-1.1462,-1.1418,-1.1412,-1.1395,-1.1386,-1.1376,-1.133,-1.1322,-1.129,-1.1295,-1.128,-1.1265,-1.125,-1.1215,-1.1199,-1.1183,-1.1216,-1.118,-1.1192,-1.1183,-1.1184,-1.1184,-1.1224,-1.1225,-1.1227,-1.1227,0,-1.154,-1.152,-1.1506,-1.1487,-1.1476,-1.1459,-1.1439,-1.1437,-1.1386,-1.1379,-1.1367,-1.1356,-1.1334,-1.1321,-1.1299,-1.1279,-1.1246,-1.1239,-1.1244,-1.1257,-1.1272,-1.1264,-1.1157,-1.1237,-1.1236,-1.1236,-1.1235,-1.1235,-1.1606,-1.1608,-1.1578,-1.1565,-1.1545,-1.1528,-1.1526,-1.1497,-1.1486,-1.1465,-1.1439,-1.143,-1.1402,-1.137,-1.1353,-1.1347,-1.1328,-1.1334,-1.1336,-1.1339,-1.1345,-1.1273,-1.1342,-1.1342,-1.1342,-1.1341,-1.1341,0,-1.1686,-1.1664,-1.1653,-1.1627,-1.1617,-1.1586,-1.1562,-1.1556,-1.1549,-1.1526,-1.1513,-1.15,-1.1487,-1.1452,-1.1435,-1.1437,-1.1421,-1.1434,-1.1433,-1.143,-1.1362,-1.136,-1.1447,-1.1447,-1.1447,-1.1447,-1.1447,-1.1447,-1.1727,-1.1729,-1.1706,-1.1699,-1.1677,-1.1668,-1.1657,-1.1641,-1.1623,-1.161,-1.1598,-1.1576,-1.1548,-1.1529,-1.1516,-1.1506,-1.1503,-1.1521,-1.1506,-1.1444,-1.1434,-1.1424,-1.1422,-1.1521,-1.1521,-1.1574,-1.1574,-1.1575]},{"header":{"parameterUnit":"m.s-1","parameterCategory":1,"la1":30.2991,"la2":30.254,"lo1":-89.0895,"lo2":-89.0444,"dy":0.0017,"dx":0.0017,"nx":28,"ny":28,"refTime":"2025-06-03T03:00:00:Z","depth":0,"parameterNumber":3,"parameterNumberName":"V-component_of_WINDS"},"data":[0,0,0,0,0,0,0,0,0,0,0,0,0,0,0,0,0,0,0,0,0,0,0,0,0,0,0,0,0,0,0,0,0,0,0,0,0,0,0,0,0,0,0,0,0,0,0,0,0,0,0,0,0,0,0,0,0,0,2.9602,2.9601,0,2.9553,2.9553,2.9552,2.9517,2.9517,2.9517,2.9516,2.9463,2.9462,2.9461,0,0,0,0,0,0,0,0,0,0,0,0,0,2.9661,2.9661,2.9602,2.9601,2.9601,2.9553,2.9553,2.9552,2.9517,2.9517,2.9516,2.9516,2.9464,2.9462,2.9461,0,0,0,0,0,0,0,0,0,0,0,0,0,2.9626,2.966,2.9602,2.9578,2.9575,2.9554,2.9553,2.9552,2.9517,2.9517,2.9516,2.9516,2.9464,2.9463,2.9461,2.9459,0,0,2.9456,2.9455,0,0,0,0,0,0,0,0,2.9629,2.9624,2.9582,2.9579,2.9576,2.9541,2.9554,2.9521,2.9517,2.9539,2.9516,2.9516,2.9489,2.9486,2.9477,2.9457,2.9454,2.9456,2.9455,2.9454,2.9453,0,0,0,0,0,0,0,2.9631,2.9626,2.9583,2.9581,2.9578,2.9568,2.9563,2.9548,2.9517,2.9537,2.9534,2.9529,2.9488,2.9479,2.9476,2.9453,2.9456,2.9454,2.9453,2.9452,2.9428,2.9429,0,0,0,0,0,0,2.9638,2.9628,2.9584,2.9581,2.9602,2.9568,2.9561,2.9553,2.9517,2.9511,2.953,2.9528,2.9482,2.9478,2.9474,2.9469,2.9454,2.9452,2.9451,2.9428,2.9429,2.9429,0,0,0,0,0,0,2.9639,2.9634,2.9586,2.9604,2.9597,2.9567,2.9557,2.9552,2.9543,2.9512,2.9506,2.9527,2.9482,2.9476,2.9463,2.9467,2.9451,2.945,2.9428,2.9428,2.9429,2.946,0,0,0,0,0,0,2.9641,2.9635,2.9634,2.9604,2.9596,2.9577,2.9558,2.9551,2.9541,2.9538,2.9507,2.9502,2.9481,2.9466,2.9461,2.9464,2.9449,2.9427,2.9428,2.9429,2.9459,2.9462,2.9464,0,0,0,0,0,2.9643,2.9644,2.9635,2.9629,2.9596,2.9578,2.9573,2.955,2.9541,2.954,2.952,2.9503,2.9467,2.9465,2.946,2.9462,2.9427,2.9428,2.9428,2.9457,2.9461,2.9464,0,0,0,0,0,0,2.9674,2.964,2.9629,2.962,2.9602,2.9572,2.957,2.9554,2.9538,2.9535,2.9506,2.95,2.949,2.9474,2.9472,2.9458,2.9445,2.9445,2.9469,2.9472,2.9475,2.9479,2.9447,0,0,0,0,0,2.9681,2.967,2.964,2.9636,2.9627,2.96,2.9591,2.9575,2.9555,2.9547,2.9525,2.9505,2.949,2.948,2.9464,2.9456,2.9449,2.9455,2.9458,2.9461,2.9461,2.9456,2.9458,2.9432,2.9432,2.9432,0,0,2.9693,2.9673,2.9667,2.9641,2.9625,2.9614,2.9594,2.9583,2.9574,2.9544,2.9531,2.9515,2.9491,2.9481,2.9475,2.9467,2.9466,2.9462,2.9464,2.9463,2.9457,2.9459,2.9461,2.9432,2.9432,2.9432,0,0,2.9709,2.9693,2.9688,2.9673,2.9649,2.9631,2.963,2.9602,2.959,2.9577,2.9555,2.9543,2.9517,2.95,2.9489,2.9499,2.9483,2.9495,2.951,2.9505,2.9507,2.9509,2.9512,2.9514,2.9495,2.9495,2.9495,0,2.9727,2.971,2.9687,2.9677,2.9666,2.9641,2.9634,2.962,2.9592,2.9585,2.9577,2.9544,2.9526,2.9511,2.9514,2.9505,2.9503,2.9498,2.9509,2.951,2.9511,2.9515,2.9516,2.9497,2.9497,2.9496,2.9496,0,2.9733,2.9722,2.972,2.9695,2.9684,2.9676,2.9651,2.9642,2.9627,2.961,2.9596,2.9573,2.9552,2.9547,2.9532,2.9531,2.9527,2.9515,2.95,2.9516,2.9519,2.952,2.9499,2.9498,2.9498,2.9498,0,0,2.9768,2.9731,2.973,2.9719,2.9691,2.9681,2.9672,2.9652,2.9645,2.9627,2.9618,2.9597,2.9585,2.9572,2.9554,2.955,2.956,2.9538,2.9537,2.9543,2.9557,2.9567,2.9569,2.9549,2.9549,2.955,2.9559,0,2.978,2.9763,2.9742,2.9732,2.9721,2.9697,2.9689,2.967,2.9654,2.9641,2.9623,2.9608,2.9594,2.9586,2.9581,2.956,2.9563,2.9559,2.954,2.954,2.9547,2.957,2.958,2.9591,2.956,2.956,2.956,0,2.9792,2.9776,2.9766,2.9739,2.9734,2.9727,2.9707,2.9696,2.9674,2.9663,2.9648,2.963,2.9618,2.9606,2.9589,2.9587,2.9578,2.9567,2.9567,2.9564,2.9551,2.9568,2.9593,2.9595,2.9562,2.9562,2.9562,0,2.9818,2.9794,2.9785,2.9775,2.9744,2.974,2.9727,2.9705,2.9695,2.9677,2.967,2.9651,2.9641,2.9626,2.9603,2.9596,2.9588,2.9574,2.9578,2.9578,2.9577,2.9577,2.9601,2.9571,2.9571,2.9571,2.9571,0,2.9834,2.9829,2.9796,2.979,2.9783,2.9759,2.9752,2.9736,2.9717,2.9707,2.9684,2.9675,2.9645,2.9632,2.9614,2.9602,2.9598,2.9587,2.9583,2.959,2.9591,2.9583,2.9582,2.9572,2.9572,2.9571,2.9571,0,2.9862,2.984,2.9829,2.9801,2.9793,2.9789,2.9765,2.9758,2.974,2.9728,2.9724,2.9696,2.968,2.9655,2.9631,2.9618,2.961,2.9602,2.9618,2.9615,2.962,2.962,2.9639,2.9641,2.961,2.9611,2.9611,0,2.9874,2.9869,2.9841,2.9833,2.9821,2.9809,2.9798,2.9774,2.9764,2.9739,2.9735,2.9717,2.9702,2.9677,2.9654,2.9635,2.9627,2.9635,2.9624,2.9631,2.9627,2.9627,2.9627,2.9637,2.9638,2.9638,2.9639,0,2.9896,2.9886,2.9873,2.9856,2.9844,2.9829,2.9813,2.9808,2.9779,2.9769,2.9753,2.9741,2.9717,2.9699,2.9678,2.9663,2.9646,2.9642,2.9642,2.9649,2.9658,2.9653,2.9625,2.9642,2.9642,2.9641,2.9641,2.9641,2.9916,2.9911,2.9891,2.9877,2.9862,2.9848,2.984,2.9822,2.9808,2.9788,2.9774,2.9758,2.9736,2.9706,2.9692,2.9679,2.9672,2.9671,2.9671,2.9672,2.9674,2.9661,2.9675,2.9675,2.9675,2.9675,2.9674,0,2.9938,2.9924,2.9911,2.989,2.9879,2.9865,2.9846,2.9837,2.9824,2.9806,2.9792,2.9773,2.9756,2.9732,2.9713,2.9707,2.9699,2.9703,2.9703,2.97,2.9682,2.9684,2.971,2.971,2.971,2.971,2.971,2.971,2.9948,2.9939,2.9926,2.9909,2.9894,2.988,2.9871,2.9857,2.9842,2.9823,2.9809,2.9794,2.9773,2.9752,2.9736,2.9729,2.9723,2.973,2.9721,2.9704,2.9701,2.9698,2.97,2.9729,2.9729,2.974,2.974,2.974]}]]